TimeMDT,TemperatureF,Dew PointF,Humidity,Sea Level PressureIn,VisibilityMPH,Wind Direction,Wind SpeedMPH,Gust SpeedMPH,PrecipitationIn,Events,Conditions,WindDirDegrees,DateUTC
12:56 AM,52.0,46.9,83,29.88,10.0,NNE,6.9,-,N/A,,Clear,30,2013-07-08 06:56:00
1:56 AM,50.9,45.0,80,29.89,10.0,ENE,6.9,-,N/A,,Clear,70,2013-07-08 07:56:00
2:56 AM,48.9,45.0,86,29.90,10.0,ESE,3.5,-,N/A,,Clear,110,2013-07-08 08:56:00
3:56 AM,52.0,43.9,74,29.90,10.0,ESE,4.6,-,N/A,,Clear,120,2013-07-08 09:56:00
4:56 AM,48.9,43.9,83,29.95,10.0,SSE,4.6,-,N/A,,Clear,150,2013-07-08 10:56:00
5:56 AM,48.9,43.9,83,29.98,10.0,Calm,Calm,-,N/A,,Clear,0,2013-07-08 11:56:00
6:56 AM,52.9,46.9,80,29.96,10.0,East,4.6,-,N/A,,Clear,100,2013-07-08 12:56:00
7:56 AM,61.9,50.9,67,29.93,10.0,NE,3.5,-,N/A,,Clear,40,2013-07-08 13:56:00
8:56 AM,70.0,52.0,53,29.92,10.0,SW,9.2,-,N/A,,Clear,220,2013-07-08 14:56:00
9:56 AM,72.9,50.9,46,29.92,10.0,SSW,11.5,-,N/A,,Partly Cloudy,210,2013-07-08 15:56:00
10:56 AM,75.9,52.0,43,29.92,10.0,SW,9.2,-,N/A,,Clear,220,2013-07-08 16:56:00
11:56 AM,77.0,50.0,39,29.94,10.0,SSW,12.7,-,N/A,,Partly Cloudy,210,2013-07-08 17:56:00
12:56 PM,73.9,52.0,46,29.97,10.0,SSW,12.7,-,N/A,,Clear,200,2013-07-08 18:56:00
1:29 PM,77.0,53.6,44,30.21,10.0,South,11.5,-,N/A,,Scattered Clouds,190,2013-07-08 19:29:00
1:56 PM,77.9,52.9,42,29.96,10.0,South,10.4,-,N/A,,Scattered Clouds,170,2013-07-08 19:56:00
2:56 PM,79.0,48.9,35,29.95,10.0,SSW,19.6,-,N/A,,Partly Cloudy,210,2013-07-08 20:56:00
3:56 PM,81.9,48.9,32,29.92,10.0,SSW,17.3,-,N/A,,Clear,210,2013-07-08 21:56:00
4:56 PM,81.0,46.9,30,29.91,10.0,SSW,15.0,-,N/A,,Clear,200,2013-07-08 22:56:00
5:56 PM,81.9,46.9,29,29.91,10.0,SSW,13.8,-,N/A,,Clear,200,2013-07-08 23:56:00
6:56 PM,81.9,36.0,19,29.89,10.0,WSW,17.3,25.3,N/A,,Clear,240,2013-07-09 00:56:00
7:56 PM,79.0,38.8,24,29.88,10.0,SSW,13.8,-,N/A,,Clear,200,2013-07-09 01:56:00
8:56 PM,72.9,43.9,35,29.88,10.0,South,10.4,-,N/A,,Clear,190,2013-07-09 02:56:00
9:56 PM,70.0,41.9,36,29.89,10.0,South,12.7,-,N/A,,Clear,170,2013-07-09 03:56:00
10:56 PM,66.9,39.9,37,29.91,10.0,South,13.8,-,N/A,,Clear,180,2013-07-09 04:56:00
11:56 PM,64.9,39.9,40,29.92,10.0,South,12.7,-,N/A,,Clear,180,2013-07-09 05:56:00